| time (UTC) | temp C | wind direction | speed KPH | gust KPH | rain 1hr cm | rain 24hr cm | rain mn cm | humidity % | barometer mb |
| 20260903210504 | 38 | 121 | 6.4 | 25.7 | 0.00 | 0.00 | 0.00 | 42 | 1010.7 |
| 20260903210004 | 39 | 128 | 6.4 | 20.9 | 0.00 | 0.00 | 0.00 | 40 | 1010.8 |
| 20260903205504 | 39 | 138 | 6.4 | 16.1 | 0.00 | 0.00 | 0.00 | 39 | 1010.8 |
| 20260903205004 | 39 | 133 | 8.0 | 17.7 | 0.00 | 0.00 | 0.00 | 39 | 1011.0 |
| 20260903204503 | 40 | 144 | 9.7 | 17.7 | 0.00 | 0.00 | 0.00 | 38 | 1011.1 |
| 20260903204004 | 40 | 136 | 9.7 | 20.9 | 0.00 | 0.00 | 0.00 | 38 | 1011.2 |
| 20260903203504 | 40 | 127 | 11.3 | 27.4 | 0.00 | 0.00 | 0.00 | 38 | 1011.2 |
| 20260903203004 | 41 | 145 | 11.3 | 27.4 | 0.00 | 0.00 | 0.00 | 38 | 1011.3 |
| 20260903202504 | 40 | 154 | 8.0 | 20.9 | 0.00 | 0.00 | 0.00 | 37 | 1011.5 |
| 20260903202004 | 40 | 148 | 8.0 | 20.9 | 0.00 | 0.00 | 0.00 | 38 | 1011.5 |
| 20260903201525 | 40 | 142 | 9.7 | 27.4 | 0.00 | 0.00 | 0.00 | 37 | 1011.5 |
| 20260903201003 | 40 | 157 | 9.7 | 27.4 | 0.00 | 0.00 | 0.00 | 38 | 1011.6 |
| 20260903200503 | 40 | 171 | 8.0 | 22.5 | 0.00 | 0.00 | 0.00 | 38 | 1011.6 |
| 20260903200004 | 40 | 158 | 8.0 | 20.9 | 0.00 | 0.00 | 0.00 | 39 | 1011.7 |
| 20260903195504 | 40 | 181 | 9.7 | 22.5 | 0.00 | 0.00 | 0.00 | 40 | 1011.7 |
| 20260903195004 | 40 | 187 | 11.3 | 22.5 | 0.00 | 0.00 | 0.00 | 40 | 1011.7 |
| 20260903194524 | 40 | 179 | 11.3 | 22.5 | 0.00 | 0.00 | 0.00 | 40 | 1011.7 |
| 20260903194025 | 40 | 167 | 9.7 | 22.5 | 0.00 | 0.00 | 0.00 | 40 | 1011.7 |
| 20260903193504 | 40 | 139 | 11.3 | 22.5 | 0.00 | 0.00 | 0.00 | 42 | 1011.9 |
| 20260903193025 | 39 | 137 | 9.7 | 22.5 | 0.00 | 0.00 | 0.00 | 41 | 1012.0 |
| 20260903192504 | 39 | 190 | 8.0 | 22.5 | 0.00 | 0.00 | 0.00 | 43 | 1012.1 |
| 20260903192004 | 39 | 200 | 9.7 | 22.5 | 0.00 | 0.00 | 0.00 | 41 | 1012.2 |
| 20260903191525 | 39 | 181 | 8.0 | 19.3 | 0.00 | 0.00 | 0.00 | 41 | 1012.2 |
| 20260903191025 | 39 | 148 | 9.7 | 20.9 | 0.00 | 0.00 | 0.00 | 43 | 1012.4 |
| 20260903190504 | 39 | 134 | 12.9 | 25.7 | 0.00 | 0.00 | 0.00 | 44 | 1012.7 |
| 20260903190024 | 39 | 128 | 12.9 | 32.2 | 0.00 | 0.00 | 0.00 | 43 | 1012.5 |
| 20260903185504 | 38 | 162 | 9.7 | 32.2 | 0.00 | 0.00 | 0.00 | 44 | 1012.5 |
| 20260903185025 | 38 | 202 | 9.7 | 22.5 | 0.00 | 0.00 | 0.00 | 45 | 1012.6 |
| 20260903184503 | 38 | 187 | 12.9 | 22.5 | 0.00 | 0.00 | 0.00 | 43 | 1012.7 |
| 20260903184003 | 38 | 152 | 12.9 | 22.5 | 0.00 | 0.00 | 0.00 | 46 | 1012.8 |
| 20260903183504 | 38 | 133 | 9.7 | 22.5 | 0.00 | 0.00 | 0.00 | 45 | 1012.9 |
| 20260903183003 | 38 | 147 | 9.7 | 22.5 | 0.00 | 0.00 | 0.00 | 46 | 1013.0 |
| 20260903182525 | 38 | 157 | 11.3 | 25.7 | 0.00 | 0.00 | 0.00 | 45 | 1013.0 |
| 20260903182003 | 38 | 154 | 11.3 | 25.7 | 0.00 | 0.00 | 0.00 | 45 | 1013.2 |
| 20260903181503 | 37 | 147 | 9.7 | 22.5 | 0.00 | 0.00 | 0.00 | 47 | 1013.3 |
| 20260903181004 | 37 | 148 | 11.3 | 22.5 | 0.00 | 0.00 | 0.00 | 47 | 1013.4 |
| 20260903180504 | 37 | 160 | 11.3 | 22.5 | 0.00 | 0.00 | 0.00 | 48 | 1013.4 |
| 20260903180003 | 37 | 180 | 9.7 | 22.5 | 0.00 | 0.00 | 0.00 | 48 | 1013.4 |
| 20260903175504 | 36 | 187 | 11.3 | 29.0 | 0.00 | 0.00 | 0.00 | 48 | 1013.5 |
| 20260903175003 | 36 | 190 | 11.3 | 29.0 | 0.00 | 0.00 | 0.00 | 49 | 1013.5 |
| 20260903174504 | 36 | 192 | 11.3 | 25.7 | 0.00 | 0.00 | 0.00 | 50 | 1013.5 |
| 20260903174003 | 36 | 191 | 11.3 | 25.7 | 0.00 | 0.00 | 0.00 | 51 | 1013.4 |
| 20260903173503 | 35 | 197 | 11.3 | 27.4 | 0.00 | 0.00 | 0.00 | 51 | 1013.5 |
| 20260903173003 | 35 | 185 | 11.3 | 27.4 | 0.00 | 0.00 | 0.00 | 51 | 1013.6 |
| 20260903172503 | 35 | 167 | 11.3 | 22.5 | 0.00 | 0.00 | 0.00 | 54 | 1013.7 |
| 20260903172004 | 35 | 161 | 12.9 | 29.0 | 0.00 | 0.00 | 0.00 | 54 | 1013.8 |
| 20260903171503 | 35 | 165 | 17.7 | 30.6 | 0.00 | 0.00 | 0.00 | 56 | 1013.9 |
| 20260903171004 | 34 | 177 | 17.7 | 30.6 | 0.00 | 0.00 | 0.00 | 55 | 1014.0 |
| 20260903170504 | 34 | 170 | 12.9 | 25.7 | 0.00 | 0.00 | 0.00 | 54 | 1014.0 |
| 20260903170003 | 34 | 151 | 12.9 | 25.7 | 0.00 | 0.00 | 0.00 | 56 | 1014.1 |
| 20260903165504 | 34 | 147 | 12.9 | 27.4 | 0.00 | 0.00 | 0.00 | 57 | 1014.1 |
| 20260903165025 | 33 | 155 | 12.9 | 27.4 | 0.00 | 0.00 | 0.00 | 59 | 1014.1 |
| 20260903164503 | 33 | 157 | 11.3 | 27.4 | 0.00 | 0.00 | 0.00 | 60 | 1014.2 |
| 20260903164003 | 33 | 160 | 11.3 | 27.4 | 0.00 | 0.00 | 0.00 | 61 | 1014.2 |
| 20260903163503 | 33 | 180 | 11.3 | 29.0 | 0.00 | 0.00 | 0.00 | 60 | 1014.2 |
| 20260903163003 | 33 | 194 | 11.3 | 29.0 | 0.00 | 0.00 | 0.00 | 60 | 1014.2 |
| 20260903162503 | 33 | 204 | 11.3 | 22.5 | 0.00 | 0.00 | 0.00 | 61 | 1014.2 |
| 20260903162003 | 32 | 195 | 12.9 | 30.6 | 0.00 | 0.00 | 0.00 | 61 | 1014.3 |
| 20260903161503 | 32 | 182 | 16.1 | 35.4 | 0.00 | 0.00 | 0.00 | 61 | 1014.2 |
| 20260903161003 | 32 | 175 | 17.7 | 35.4 | 0.00 | 0.00 | 0.00 | 62 | 1014.3 |
| 20260903160503 | 32 | 174 | 16.1 | 29.0 | 0.00 | 0.00 | 0.00 | 63 | 1014.3 |
| 20260903160003 | 32 | 182 | 11.3 | 29.0 | 0.00 | 0.00 | 0.00 | 65 | 1014.3 |
| 20260903155503 | 32 | 193 | 11.3 | 22.5 | 0.00 | 0.00 | 0.00 | 65 | 1014.3 |
| 20260903155003 | 31 | 185 | 12.9 | 29.0 | 0.00 | 0.00 | 0.00 | 66 | 1014.3 |
| 20260903154503 | 31 | 171 | 12.9 | 29.0 | 0.00 | 0.00 | 0.00 | 68 | 1014.2 |
| 20260903154024 | 31 | 173 | 11.3 | 22.5 | 0.00 | 0.00 | 0.00 | 68 | 1014.2 |
| 20260903153524 | 31 | 179 | 9.7 | 20.9 | 0.00 | 0.00 | 0.00 | 68 | 1014.3 |
| 20260903153003 | 31 | 180 | 11.3 | 25.7 | 0.00 | 0.00 | 0.00 | 70 | 1014.3 |
| 20260903152524 | 31 | 181 | 12.9 | 30.6 | 0.00 | 0.00 | 0.00 | 69 | 1014.3 |
| 20260903152003 | 30 | 190 | 16.1 | 30.6 | 0.00 | 0.00 | 0.00 | 70 | 1014.2 |
| 20260903151503 | 30 | 196 | 16.1 | 30.6 | 0.00 | 0.00 | 0.00 | 70 | 1014.2 |
| 20260903151003 | 30 | 188 | 16.1 | 30.6 | 0.00 | 0.00 | 0.00 | 71 | 1014.2 |
| 20260903150503 | 30 | 190 | 16.1 | 40.2 | 0.00 | 0.00 | 0.00 | 71 | 1014.2 |
| 20260903150003 | 30 | 191 | 12.9 | 40.2 | 0.00 | 0.00 | 0.00 | 72 | 1014.2 |
| 20260903145503 | 30 | 183 | 12.9 | 29.0 | 0.00 | 0.00 | 0.00 | 74 | 1014.1 |
| 20260903145003 | 30 | 189 | 11.3 | 29.0 | 0.00 | 0.00 | 0.00 | 75 | 1014.1 |
| 20260903144503 | 29 | 198 | 12.9 | 30.6 | 0.00 | 0.00 | 0.00 | 75 | 1014.1 |
| 20260903144024 | 29 | 190 | 16.1 | 32.2 | 0.00 | 0.00 | 0.00 | 75 | 1014.1 |
| 20260903143503 | 29 | 178 | 17.7 | 32.2 | 0.00 | 0.00 | 0.00 | 76 | 1014.2 |
| 20260903143004 | 28 | 175 | 16.1 | 32.2 | 0.00 | 0.00 | 0.00 | 76 | 1014.2 |
| 20260903142503 | 28 | 185 | 16.1 | 32.2 | 0.00 | 0.00 | 0.00 | 77 | 1014.3 |
| 20260903142003 | 28 | 195 | 12.9 | 29.0 | 0.00 | 0.00 | 0.00 | 77 | 1014.3 |
| 20260903141524 | 28 | 194 | 16.1 | 30.6 | 0.00 | 0.00 | 0.00 | 77 | 1014.4 |
| 20260903141003 | 28 | 185 | 16.1 | 37.0 | 0.00 | 0.00 | 0.00 | 78 | 1014.3 |
| 20260903140503 | 28 | 180 | 12.9 | 37.0 | 0.00 | 0.00 | 0.00 | 79 | 1014.3 |
| 20260903140003 | 28 | 185 | 12.9 | 25.7 | 0.00 | 0.00 | 0.00 | 80 | 1014.3 |
| 20260903135503 | 28 | 184 | 16.1 | 29.0 | 0.00 | 0.00 | 0.00 | 80 | 1014.3 |
| 20260903135003 | 28 | 180 | 16.1 | 29.0 | 0.00 | 0.00 | 0.00 | 81 | 1014.3 |
| 20260903134503 | 28 | 182 | 16.1 | 29.0 | 0.00 | 0.00 | 0.00 | 81 | 1014.3 |
| 20260903134003 | 28 | 181 | 16.1 | 30.6 | 0.00 | 0.00 | 0.00 | 82 | 1014.3 |
| 20260903133503 | 27 | 178 | 12.9 | 30.6 | 0.00 | 0.00 | 0.00 | 82 | 1014.4 |
| 20260903133024 | 27 | 185 | 12.9 | 25.7 | 0.00 | 0.00 | 0.00 | 83 | 1014.4 |
| 20260903132503 | 27 | 185 | 11.3 | 25.7 | 0.00 | 0.00 | 0.00 | 83 | 1014.4 |
| 20260903132003 | 27 | 177 | 11.3 | 25.7 | 0.00 | 0.00 | 0.00 | 83 | 1014.4 |
| 20260903131503 | 27 | 175 | 12.9 | 25.7 | 0.00 | 0.00 | 0.00 | 84 | 1014.4 |
| 20260903131003 | 27 | 175 | 12.9 | 25.7 | 0.00 | 0.00 | 0.00 | 84 | 1014.4 |
| 20260903130524 | 27 | 173 | 12.9 | 27.4 | 0.00 | 0.00 | 0.00 | 84 | 1014.3 |
| 20260903130003 | 27 | 171 | 12.9 | 29.0 | 0.00 | 0.00 | 0.00 | 84 | 1014.4 |
| 20260903125503 | 27 | 176 | 12.9 | 29.0 | 0.00 | 0.00 | 0.00 | 84 | 1014.3 |
| 20260903125003 | 27 | 179 | 12.9 | 22.5 | 0.00 | 0.00 | 0.00 | 84 | 1014.2 |
| 20260903124503 | 27 | 178 | 11.3 | 22.5 | 0.00 | 0.00 | 0.00 | 84 | 1014.2 |
| 20260903124003 | 27 | 180 | 11.3 | 22.5 | 0.00 | 0.00 | 0.00 | 85 | 1014.2 |
| 20260903123504 | 27 | 179 | 11.3 | 22.5 | 0.00 | 0.00 | 0.00 | 85 | 1014.1 |
| 20260903123004 | 27 | 178 | 9.7 | 22.5 | 0.00 | 0.00 | 0.00 | 85 | 1014.1 |
| 20260903122504 | 27 | 182 | 11.3 | 20.9 | 0.00 | 0.00 | 0.00 | 85 | 1014.1 |
| 20260903122004 | 27 | 180 | 11.3 | 20.9 | 0.00 | 0.00 | 0.00 | 85 | 1014.0 |
| 20260903121504 | 27 | 176 | 9.7 | 20.9 | 0.00 | 0.00 | 0.00 | 85 | 1013.9 |
| 20260903121004 | 27 | 175 | 9.7 | 19.3 | 0.00 | 0.00 | 0.00 | 85 | 1013.9 |
| 20260903120504 | 27 | 177 | 11.3 | 19.3 | 0.00 | 0.00 | 0.00 | 86 | 1013.9 |
| 20260903120004 | 27 | 178 | 11.3 | 25.7 | 0.00 | 0.00 | 0.00 | 86 | 1013.8 |
| 20260903115504 | 27 | 180 | 11.3 | 25.7 | 0.00 | 0.00 | 0.00 | 86 | 1013.7 |
| 20260903115004 | 27 | 178 | 11.3 | 20.9 | 0.00 | 0.00 | 0.00 | 86 | 1013.7 |
| 20260903114504 | 27 | 174 | 9.7 | 17.7 | 0.00 | 0.00 | 0.00 | 86 | 1013.7 |
| 20260903114004 | 27 | 178 | 8.0 | 12.9 | 0.00 | 0.00 | 0.00 | 86 | 1013.7 |
| 20260903113504 | 27 | 181 | 8.0 | 16.1 | 0.00 | 0.00 | 0.00 | 87 | 1013.7 |
| 20260903113004 | 26 | 177 | 9.7 | 19.3 | 0.00 | 0.00 | 0.00 | 87 | 1013.6 |
| 20260903112504 | 26 | 173 | 11.3 | 19.3 | 0.00 | 0.00 | 0.00 | 87 | 1013.7 |
| 20260903112025 | 26 | 172 | 9.7 | 19.3 | 0.00 | 0.00 | 0.00 | 87 | 1013.7 |
| 20260903111504 | 26 | 172 | 9.7 | 19.3 | 0.00 | 0.00 | 0.00 | 87 | 1013.7 |
| 20260903111004 | 26 | 170 | 11.3 | 19.3 | 0.00 | 0.00 | 0.00 | 87 | 1013.7 |
| 20260903110504 | 26 | 171 | 11.3 | 19.3 | 0.00 | 0.00 | 0.00 | 88 | 1013.6 |
| 20260903110004 | 26 | 172 | 9.7 | 19.3 | 0.00 | 0.00 | 0.00 | 88 | 1013.6 |
| 20260903105504 | 26 | 171 | 9.7 | 19.3 | 0.00 | 0.00 | 0.00 | 88 | 1013.7 |
| 20260903105004 | 26 | 168 | 9.7 | 17.7 | 0.00 | 0.00 | 0.00 | 88 | 1013.7 |
| 20260903104504 | 26 | 169 | 9.7 | 17.7 | 0.00 | 0.00 | 0.00 | 88 | 1013.6 |
| 20260903104005 | 26 | 170 | 8.0 | 12.9 | 0.00 | 0.00 | 0.00 | 88 | 1013.6 |
| 20260903103504 | 26 | 170 | 8.0 | 17.7 | 0.00 | 0.00 | 0.00 | 88 | 1013.5 |
| 20260903103004 | 26 | 174 | 8.0 | 17.7 | 0.00 | 0.00 | 0.00 | 88 | 1013.5 |
| 20260903102504 | 26 | 174 | 8.0 | 16.1 | 0.00 | 0.00 | 0.00 | 88 | 1013.5 |
| 20260903102004 | 26 | 172 | 8.0 | 16.1 | 0.00 | 0.00 | 0.00 | 88 | 1013.6 |
| 20260903101504 | 26 | 170 | 8.0 | 16.1 | 0.00 | 0.00 | 0.00 | 88 | 1013.5 |
| 20260903101025 | 26 | 165 | 8.0 | 16.1 | 0.00 | 0.00 | 0.00 | 88 | 1013.5 |
| 20260903100504 | 26 | 166 | 8.0 | 12.9 | 0.00 | 0.00 | 0.00 | 88 | 1013.6 |
| 20260903100004 | 26 | 165 | 8.0 | 12.9 | 0.00 | 0.00 | 0.00 | 88 | 1013.6 |
| 20260903095504 | 26 | 168 | 8.0 | 16.1 | 0.00 | 0.00 | 0.00 | 87 | 1013.6 |
| 20260903095004 | 26 | 170 | 6.4 | 16.1 | 0.00 | 0.00 | 0.00 | 87 | 1013.6 |
| 20260903094525 | 26 | 166 | 8.0 | 12.9 | 0.00 | 0.00 | 0.00 | 87 | 1013.6 |
| 20260903094025 | 26 | 166 | 8.0 | 17.7 | 0.00 | 0.00 | 0.00 | 87 | 1013.7 |
| 20260903093525 | 26 | 165 | 8.0 | 17.7 | 0.00 | 0.00 | 0.00 | 87 | 1013.7 |
| 20260903093004 | 26 | 166 | 8.0 | 16.1 | 0.00 | 0.00 | 0.00 | 87 | 1013.7 |
| 20260903092504 | 26 | 170 | 8.0 | 12.9 | 0.00 | 0.00 | 0.00 | 87 | 1013.7 |
| 20260903092004 | 26 | 170 | 8.0 | 12.9 | 0.00 | 0.00 | 0.00 | 87 | 1013.8 |
| 20260903091525 | 26 | 169 | 9.7 | 17.7 | 0.00 | 0.00 | 0.00 | 87 | 1013.7 |
| 20260903091025 | 26 | 167 | 8.0 | 17.7 | 0.00 | 0.00 | 0.00 | 86 | 1013.7 |
| 20260903090504 | 26 | 166 | 8.0 | 17.7 | 0.00 | 0.00 | 0.00 | 86 | 1013.8 |
| 20260903090004 | 26 | 168 | 8.0 | 17.7 | 0.00 | 0.00 | 0.00 | 86 | 1013.8 |
| 20260903085504 | 26 | 173 | 8.0 | 16.1 | 0.00 | 0.00 | 0.00 | 86 | 1013.8 |
| 20260903085003 | 26 | 172 | 8.0 | 16.1 | 0.00 | 0.00 | 0.00 | 86 | 1013.8 |
| 20260903084504 | 27 | 167 | 8.0 | 16.1 | 0.00 | 0.00 | 0.00 | 86 | 1013.7 |
| 20260903084004 | 27 | 163 | 9.7 | 16.1 | 0.00 | 0.00 | 0.00 | 86 | 1013.7 |
| 20260903083504 | 27 | 166 | 9.7 | 19.3 | 0.00 | 0.00 | 0.00 | 85 | 1013.8 |
| 20260903083004 | 27 | 166 | 9.7 | 19.3 | 0.00 | 0.00 | 0.00 | 85 | 1013.8 |
| 20260903082504 | 27 | 168 | 8.0 | 16.1 | 0.00 | 0.00 | 0.00 | 85 | 1013.7 |
| 20260903082025 | 27 | 170 | 9.7 | 16.1 | 0.00 | 0.00 | 0.00 | 85 | 1013.8 |
| 20260903081503 | 27 | 167 | 9.7 | 19.3 | 0.00 | 0.00 | 0.00 | 85 | 1013.8 |
| 20260903081004 | 27 | 167 | 11.3 | 19.3 | 0.00 | 0.00 | 0.00 | 84 | 1013.8 |
| 20260903080525 | 27 | 167 | 9.7 | 19.3 | 0.00 | 0.00 | 0.00 | 84 | 1013.8 |
| 20260903080004 | 27 | 165 | 9.7 | 19.3 | 0.00 | 0.00 | 0.00 | 84 | 1013.8 |
| 20260903075504 | 27 | 166 | 9.7 | 19.3 | 0.00 | 0.00 | 0.00 | 84 | 1013.9 |
| 20260903075004 | 27 | 163 | 9.7 | 17.7 | 0.00 | 0.00 | 0.00 | 83 | 1014.0 |
| 20260903074504 | 27 | 158 | 9.7 | 17.7 | 0.00 | 0.00 | 0.00 | 83 | 1014.0 |
| 20260903074025 | 27 | 159 | 9.7 | 17.7 | 0.00 | 0.00 | 0.00 | 83 | 1014.0 |
| 20260903073503 | 27 | 153 | 9.7 | 19.3 | 0.00 | 0.00 | 0.00 | 83 | 1014.1 |
| 20260903073004 | 27 | 155 | 9.7 | 19.3 | 0.00 | 0.00 | 0.00 | 82 | 1014.1 |
| 20260903072504 | 27 | 156 | 9.7 | 19.3 | 0.00 | 0.00 | 0.00 | 82 | 1014.0 |
| 20260903072004 | 27 | 154 | 9.7 | 19.3 | 0.00 | 0.00 | 0.00 | 82 | 1014.1 |
| 20260903071524 | 27 | 161 | 11.3 | 19.3 | 0.00 | 0.00 | 0.00 | 81 | 1014.1 |
| 20260903071004 | 27 | 163 | 9.7 | 19.3 | 0.00 | 0.00 | 0.00 | 81 | 1014.1 |
| 20260903070524 | 27 | 160 | 9.7 | 19.3 | 0.00 | 0.00 | 0.00 | 80 | 1014.2 |
| 20260903070004 | 27 | 157 | 9.7 | 19.3 | 0.00 | 0.00 | 0.00 | 80 | 1014.2 |
| 20260903065504 | 27 | 159 | 9.7 | 19.3 | 0.00 | 0.00 | 0.00 | 79 | 1014.3 |
| 20260903065004 | 27 | 160 | 9.7 | 19.3 | 0.00 | 0.00 | 0.00 | 79 | 1014.2 |
| 20260903064504 | 28 | 154 | 9.7 | 17.7 | 0.00 | 0.00 | 0.00 | 78 | 1014.2 |
| 20260903064003 | 28 | 155 | 9.7 | 19.3 | 0.00 | 0.00 | 0.00 | 78 | 1014.2 |
| 20260903063503 | 28 | 162 | 9.7 | 19.3 | 0.00 | 0.00 | 0.00 | 77 | 1014.2 |
| 20260903063004 | 28 | 161 | 8.0 | 16.1 | 0.00 | 0.00 | 0.00 | 76 | 1014.2 |
| 20260903062504 | 28 | 157 | 8.0 | 17.7 | 0.00 | 0.00 | 0.00 | 76 | 1014.2 |
| 20260903062003 | 28 | 157 | 9.7 | 20.9 | 0.00 | 0.00 | 0.00 | 76 | 1014.2 |
| 20260903061504 | 28 | 159 | 11.3 | 20.9 | 0.00 | 0.00 | 0.00 | 75 | 1014.2 |
| 20260903061003 | 28 | 155 | 11.3 | 25.7 | 0.00 | 0.00 | 0.00 | 74 | 1014.2 |
| 20260903060503 | 28 | 150 | 11.3 | 25.7 | 0.00 | 0.00 | 0.00 | 73 | 1014.2 |
| 20260903060003 | 28 | 161 | 12.9 | 25.7 | 0.00 | 0.00 | 0.00 | 73 | 1014.2 |
| 20260903055503 | 28 | 162 | 12.9 | 25.7 | 0.00 | 0.00 | 0.00 | 72 | 1014.2 |
| 20260903055004 | 28 | 151 | 11.3 | 27.4 | 0.00 | 0.00 | 0.00 | 72 | 1014.2 |
| 20260903054504 | 28 | 155 | 12.9 | 29.0 | 0.00 | 0.00 | 0.00 | 71 | 1014.2 |
| 20260903054003 | 28 | 155 | 12.9 | 29.0 | 0.00 | 0.00 | 0.00 | 71 | 1014.2 |
| 20260903053503 | 28 | 147 | 12.9 | 27.4 | 0.00 | 0.00 | 0.00 | 70 | 1014.2 |
| 20260903053003 | 28 | 147 | 11.3 | 22.5 | 0.00 | 0.00 | 0.00 | 70 | 1014.2 |
| 20260903052525 | 28 | 138 | 9.7 | 22.5 | 0.00 | 0.00 | 0.00 | 71 | 1014.1 |
| 20260903052003 | 28 | 129 | 9.7 | 22.5 | 0.00 | 0.00 | 0.00 | 71 | 1014.2 |
| 20260903051503 | 28 | 129 | 11.3 | 22.5 | 0.00 | 0.00 | 0.00 | 71 | 1014.3 |
| 20260903051003 | 28 | 127 | 11.3 | 22.5 | 0.00 | 0.00 | 0.00 | 70 | 1014.2 |
| 20260903050504 | 29 | 126 | 11.3 | 22.5 | 0.00 | 0.00 | 0.00 | 70 | 1014.1 |
| 20260903050004 | 29 | 123 | 9.7 | 20.9 | 0.00 | 0.00 | 0.00 | 69 | 1014.1 |
| 20260903045503 | 29 | 118 | 9.7 | 20.9 | 0.00 | 0.00 | 0.00 | 69 | 1014.2 |
| 20260903045025 | 29 | 120 | 8.0 | 19.3 | 0.00 | 0.00 | 0.00 | 69 | 1014.1 |
| 20260903044503 | 29 | 121 | 11.3 | 22.5 | 0.00 | 0.00 | 0.00 | 68 | 1013.9 |
| 20260903044003 | 30 | 122 | 12.9 | 25.7 | 0.00 | 0.00 | 0.00 | 68 | 1013.8 |
| 20260903043503 | 30 | 122 | 11.3 | 25.7 | 0.00 | 0.00 | 0.00 | 67 | 1013.8 |
| 20260903043025 | 30 | 119 | 11.3 | 25.7 | 0.00 | 0.00 | 0.00 | 67 | 1013.8 |
| 20260903042503 | 30 | 115 | 11.3 | 19.3 | 0.00 | 0.00 | 0.00 | 66 | 1013.8 |
| 20260903042004 | 30 | 115 | 9.7 | 19.3 | 0.00 | 0.00 | 0.00 | 65 | 1013.8 |
| 20260903041503 | 30 | 114 | 8.0 | 19.3 | 0.00 | 0.00 | 0.00 | 64 | 1013.8 |
| 20260903041004 | 30 | 108 | 8.0 | 16.1 | 0.00 | 0.00 | 0.00 | 63 | 1013.8 |
| 20260903040503 | 30 | 110 | 8.0 | 19.3 | 0.00 | 0.00 | 0.00 | 63 | 1013.7 |
| 20260903040004 | 30 | 117 | 8.0 | 19.3 | 0.00 | 0.00 | 0.00 | 63 | 1013.7 |
| 20260903035524 | 30 | 113 | 8.0 | 19.3 | 0.00 | 0.00 | 0.00 | 62 | 1013.7 |
| 20260903035003 | 30 | 106 | 8.0 | 19.3 | 0.00 | 0.00 | 0.00 | 62 | 1013.7 |
| 20260903034503 | 30 | 107 | 8.0 | 20.9 | 0.00 | 0.00 | 0.00 | 61 | 1013.7 |
| 20260903034004 | 30 | 105 | 9.7 | 20.9 | 0.00 | 0.00 | 0.00 | 61 | 1013.7 |
| 20260903033504 | 31 | 103 | 11.3 | 29.0 | 0.00 | 0.00 | 0.00 | 61 | 1013.7 |
| 20260903033024 | 31 | 106 | 11.3 | 29.0 | 0.00 | 0.00 | 0.00 | 60 | 1013.7 |
| 20260903032504 | 31 | 111 | 11.3 | 22.5 | 0.00 | 0.00 | 0.00 | 59 | 1013.6 |
| 20260903032003 | 31 | 111 | 11.3 | 29.0 | 0.00 | 0.00 | 0.00 | 59 | 1013.6 |
| 20260903031503 | 31 | 109 | 11.3 | 29.0 | 0.00 | 0.00 | 0.00 | 58 | 1013.5 |
| 20260903031003 | 31 | 107 | 9.7 | 27.4 | 0.00 | 0.00 | 0.00 | 58 | 1013.4 |
| 20260903030503 | 31 | 102 | 6.4 | 22.5 | 0.00 | 0.00 | 0.00 | 57 | 1013.2 |
| 20260903030004 | 31 | 92 | 6.4 | 17.7 | 0.00 | 0.00 | 0.00 | 57 | 1013.0 |
| 20260903025525 | 31 | 88 | 3.2 | 16.1 | 0.00 | 0.00 | 0.00 | 57 | 1012.9 |
| 20260903025003 | 31 | 92 | 3.2 | 16.1 | 0.00 | 0.00 | 0.00 | 57 | 1012.7 |
| 20260903024503 | 31 | 106 | 3.2 | 8.0 | 0.00 | 0.00 | 0.00 | 57 | 1012.7 |
| 20260903024024 | 31 | 111 | 3.2 | 9.7 | 0.00 | 0.00 | 0.00 | 56 | 1012.7 |
| 20260903023503 | 32 | 111 | 3.2 | 9.7 | 0.00 | 0.00 | 0.00 | 55 | 1012.7 |
| 20260903023003 | 32 | 106 | 3.2 | 8.0 | 0.00 | 0.00 | 0.00 | 55 | 1012.5 |
| 20260903022504 | 32 | 101 | 3.2 | 9.7 | 0.00 | 0.00 | 0.00 | 55 | 1012.5 |
| 20260903022024 | 32 | 102 | 3.2 | 9.7 | 0.00 | 0.00 | 0.00 | 55 | 1012.3 |
| 20260903021524 | 32 | 105 | 3.2 | 11.3 | 0.00 | 0.00 | 0.00 | 54 | 1012.3 |
| 20260903021024 | 32 | 105 | 3.2 | 11.3 | 0.00 | 0.00 | 0.00 | 54 | 1012.2 |
| 20260903020524 | 32 | 101 | 6.4 | 16.1 | 0.00 | 0.00 | 0.00 | 53 | 1012.2 |
| 20260903020003 | 32 | 95 | 6.4 | 16.1 | 0.00 | 0.00 | 0.00 | 53 | 1012.0 |
| 20260903015503 | 33 | 78 | 1.6 | 12.9 | 0.00 | 0.00 | 0.00 | 52 | 1012.1 |
| 20260903015003 | 33 | 58 | 1.6 | 6.4 | 0.00 | 0.00 | 0.00 | 51 | 1011.8 |
| 20260903014504 | 33 | 60 | 3.2 | 8.0 | 0.00 | 0.00 | 0.00 | 51 | 1011.7 |
| 20260903014003 | 33 | 62 | 3.2 | 8.0 | 0.00 | 0.00 | 0.00 | 51 | 1011.7 |
| 20260903013503 | 33 | 42 | 3.2 | 9.7 | 0.00 | 0.00 | 0.00 | 50 | 1011.6 |
| 20260903013003 | 33 | 37 | 3.2 | 9.7 | 0.00 | 0.00 | 0.00 | 50 | 1011.6 |
| 20260903012503 | 33 | 33 | 6.4 | 9.7 | 0.00 | 0.00 | 0.00 | 49 | 1011.6 |
| 20260903012003 | 34 | 33 | 3.2 | 16.1 | 0.00 | 0.00 | 0.00 | 48 | 1011.4 |
| 20260903011503 | 34 | 53 | 1.6 | 16.1 | 0.00 | 0.00 | 0.00 | 48 | 1011.6 |
| 20260903011024 | 34 | 178 | 0.0 | 1.6 | 0.00 | 0.00 | 0.00 | 50 | 1011.5 |
| 20260903010524 | 35 | 178 | 0.0 | 1.6 | 0.00 | 0.00 | 0.00 | 49 | 1011.4 |
| 20260903010003 | 35 | 0 | 0.0 | 0.0 | 0.00 | 0.00 | 0.00 | 49 | 1011.4 |
| 20260903005503 | 35 | 0 | 0.0 | 0.0 | 0.00 | 0.00 | 0.00 | 48 | 1011.5 |
| 20260903005003 | 35 | 178 | 0.0 | 1.6 | 0.00 | 0.00 | 0.00 | 48 | 1011.5 |
| 20260903004503 | 36 | 178 | 0.0 | 1.6 | 0.00 | 0.00 | 0.00 | 46 | 1011.5 |
| 20260903004003 | 36 | 178 | 0.0 | 1.6 | 0.00 | 0.00 | 0.00 | 45 | 1011.4 |
| 20260903003503 | 36 | 178 | 0.0 | 3.2 | 0.00 | 0.00 | 0.00 | 44 | 1011.4 |
| 20260903003004 | 36 | 178 | 0.0 | 3.2 | 0.00 | 0.00 | 0.00 | 44 | 1011.4 |
| 20260903002525 | 36 | 178 | 1.6 | 3.2 | 0.00 | 0.00 | 0.00 | 44 | 1011.4 |
| 20260903002004 | 36 | 178 | 1.6 | 3.2 | 0.00 | 0.00 | 0.00 | 43 | 1011.4 |
| 20260903001504 | 36 | 178 | 1.6 | 3.2 | 0.00 | 0.00 | 0.00 | 41 | 1011.4 |
| 20260903001004 | 36 | 178 | 0.0 | 1.6 | 0.00 | 0.00 | 0.00 | 41 | 1011.4 |
| 20260903000504 | 37 | 178 | 0.0 | 1.6 | 0.00 | 0.00 | 0.00 | 40 | 1011.5 |
| 20260903000004 | 37 | 178 | 1.6 | 3.2 | 0.00 | 0.00 | 0.00 | 40 | 1011.4 |
| 20260902235525 | 37 | 173 | 3.2 | 9.7 | 0.00 | 0.00 | 0.00 | 39 | 1011.5 |
| 20260902235004 | 37 | 166 | 3.2 | 9.7 | 0.00 | 0.00 | 0.00 | 39 | 1011.5 |
| 20260902234504 | 37 | 156 | 1.6 | 8.0 | 0.00 | 0.00 | 0.00 | 40 | 1011.4 |
| 20260902234004 | 37 | 158 | 1.6 | 8.0 | 0.00 | 0.00 | 0.00 | 41 | 1011.5 |
| 20260902233525 | 37 | 174 | 1.6 | 8.0 | 0.00 | 0.00 | 0.00 | 41 | 1011.5 |
| 20260902233004 | 37 | 184 | 1.6 | 3.2 | 0.00 | 0.00 | 0.00 | 40 | 1011.6 |
| 20260902232504 | 37 | 184 | 1.6 | 3.2 | 0.00 | 0.00 | 0.00 | 42 | 1011.6 |
| 20260902232004 | 37 | 184 | 1.6 | 6.4 | 0.00 | 0.00 | 0.00 | 42 | 1011.6 |
| 20260902231504 | 37 | 185 | 3.2 | 11.3 | 0.00 | 0.00 | 0.00 | 42 | 1011.6 |
| 20260902231004 | 37 | 170 | 6.4 | 11.3 | 0.00 | 0.00 | 0.00 | 41 | 1011.6 |
| 20260902230526 | 37 | 157 | 6.4 | 11.3 | 0.00 | 0.00 | 0.00 | 41 | 1011.6 |
| 20260902230004 | 36 | 145 | 3.2 | 9.7 | 0.00 | 0.00 | 0.00 | 42 | 1011.5 |
| 20260902225504 | 36 | 141 | 3.2 | 12.9 | 0.00 | 0.00 | 0.00 | 42 | 1011.5 |
| 20260902225004 | 36 | 164 | 1.6 | 12.9 | 0.00 | 0.00 | 0.00 | 43 | 1011.5 |
| 20260902224525 | 36 | 195 | 1.6 | 3.2 | 0.00 | 0.00 | 0.00 | 46 | 1011.6 |
| 20260902224004 | 36 | 195 | 1.6 | 6.4 | 0.00 | 0.00 | 0.00 | 46 | 1011.5 |
| 20260902223504 | 36 | 195 | 1.6 | 8.0 | 0.00 | 0.00 | 0.00 | 45 | 1011.5 |
| 20260902223004 | 36 | 201 | 3.2 | 8.0 | 0.00 | 0.00 | 0.00 | 45 | 1011.6 |
| 20260902222504 | 36 | 205 | 6.4 | 9.7 | 0.00 | 0.00 | 0.00 | 45 | 1011.7 |
| 20260902222004 | 36 | 210 | 3.2 | 9.7 | 0.00 | 0.00 | 0.00 | 45 | 1011.8 |
| 20260902221504 | 36 | 210 | 6.4 | 12.9 | 0.00 | 0.00 | 0.00 | 44 | 1011.7 |
| 20260902221004 | 36 | 209 | 6.4 | 12.9 | 0.00 | 0.00 | 0.00 | 43 | 1011.8 |
| 20260902220504 | 36 | 216 | 6.4 | 11.3 | 0.00 | 0.00 | 0.00 | 44 | 1011.9 |
| 20260902220004 | 37 | 209 | 8.0 | 12.9 | 0.00 | 0.00 | 0.00 | 43 | 1011.8 |
| 20260902215504 | 37 | 205 | 8.0 | 12.9 | 0.00 | 0.00 | 0.00 | 43 | 1011.8 |
| 20260902215004 | 37 | 207 | 8.0 | 17.7 | 0.00 | 0.00 | 0.00 | 43 | 1011.9 |
| 20260902214504 | 37 | 202 | 9.7 | 17.7 | 0.00 | 0.00 | 0.00 | 42 | 1011.9 |
| 20260902214004 | 37 | 199 | 9.7 | 19.3 | 0.00 | 0.00 | 0.00 | 42 | 1012.0 |
| 20260902213525 | 38 | 197 | 8.0 | 19.3 | 0.00 | 0.00 | 0.00 | 41 | 1011.9 |
| 20260902213004 | 38 | 202 | 3.2 | 12.9 | 0.00 | 0.00 | 0.00 | 41 | 1012.1 |
| 20260902212504 | 38 | 204 | 6.4 | 12.9 | 0.00 | 0.00 | 0.00 | 40 | 1012.1 |
| 20260902212004 | 38 | 197 | 8.0 | 16.1 | 0.00 | 0.00 | 0.00 | 40 | 1012.1 |
| 20260902211504 | 38 | 199 | 8.0 | 17.7 | 0.00 | 0.00 | 0.00 | 39 | 1012.1 |
| 20260902211004 | 38 | 195 | 6.4 | 17.7 | 0.00 | 0.00 | 0.00 | 40 | 1012.2 |